RH
70 97 102 95 100 105 104 102 92 87 84 86 95 88 81 72 56 51 42 34 32 29 30 26 25 28 26 27 29 36 35 30 35 31 25 27 28 33 33 34 44 59 66 60 68 73 69 59 37 33 37 53 65 66 66 54 78 88 80 105 106 103 106 101 95 87 85 79 81 90 87 73 59 50 49 61 67 56 41 33 31 31 30 30 30 30 32 34 36 36 37 38 38 38 41 44 44
67 92 103 98 101 104 103 101 85 85 81 78 90 97 102 86 60 40 29 29 33 34 29 28 28 28 29 29 30 34 34 28 30 28 26 27 30 32 36 48 60 70 70 64 74 75 73 76 61 43 36 47 57 67 73 61 65 66 75 101 101 102 108 104 99 98 100 95 96 99 99 82 55 51 60 65 62 52 41 36 36 35 32 31 32 34 35 36 38 39 39 38 38 39 40 39 38
57 83 104 98 99 99 99 99 82 91 94 93 99 101 100 73 52 42 36 34 37 39 28 29 30 29 31 31 32 30 30 28 28 28 27 29 32 32 42 58 66 78 75 70 77 77 79 83 81 66 47 46 56 69 82 76 68 68 84 100 100 101 104 106 104 104 108 107 104 104 107 83 49 53 66 63 59 59 54 45 41 38 33 33 35 36 37 38 39 38 36 33 32 33 35 37 38
49 72 102 99 99 98 99 105 84 78 83 90 86 90 87 53 57 65 60 57 54 47 28 29 31 32 34 32 33 29 28 27 26 27 27 30 33 32 46 57 56 65 63 61 61 56 59 64 78 84 68 51 54 69 82 90 84 80 90 100 98 97 101 102 100 102 105 105 102 104 103 70 46 60 66 60 65 75 79 72 61 49 39 37 37 38 41 42 39 35 32 30 31 34 37 38 36
40 61 97 100 101 97 91 99 88 71 75 80 59 80 87 49 64 72 77 86 72 52 32 33 31 31 34 34 34 28 28 25 25 27 28 32 32 32 45 51 41 41 37 35 34 28 29 34 49 74 87 72 59 65 80 94 87 73 80 96 92 92 103 101 101 103 104 103 101 104 88 59 55 66 65 65 69 75 88 94 88 73 55 43 38 41 47 45 39 35 34 35 36 37 37 32 26
30 47 82 99 101 95 83 83 90 78 74 77 61 89 92 55 64 72 90 96 74 54 36 35 31 31 33 35 35 29 28 25 26 27 29 32 31 35 41 39 33 33 30 26 25 24 23 25 27 43 75 91 81 67 78 96 94 86 87 93 94 99 103 101 103 99 102 101 102 102 75 61 69 69 71 71 63 69 89 98 97 87 71 58 44 45 52 45 40 38 39 39 37 34 30 24 22
26 33 59 93 102 97 93 83 87 76 62 71 74 96 94 67 65 65 78 82 81 63 35 35 29 29 32 34 36 30 28 26 28 28 31 32 31 38 37 29 27 28 28 26 26 29 29 30 30 29 46 82 99 83 82 97 100 99 94 86 86 99 101 99 103 99 100 99 103 98 74 76 77 73 82 73 61 72 89 95 92 83 78 73 53 52 56 45 42 44 42 39 33 29 23 26 35
24 26 42 86 105 97 100 93 82 67 57 71 78 95 102 88 74 63 58 69 95 68 31 36 29 29 32 33 38 32 29 28 30 30 32 33 33 38 32 25 25 25 24 25 25 29 31 33 37 37 36 53 85 95 91 95 99 100 97 92 88 96 101 99 101 101 99 100 104 92 83 88 75 81 91 71 62 71 85 93 87 76 77 78 64 62 58 46 48 46 42 35 28 25 30 47 53
20 22 30 67 98 98 100 96 84 66 53 66 81 95 102 99 92 79 62 59 74 57 36 37 31 32 32 34 40 35 30 29 32 32 34 35 36 37 32 27 26 26 24 25 25 27 30 34 38 44 46 39 52 83 97 94 95 99 99 99 99 98 99 99 101 101 99 101 103 93 90 84 76 94 93 69 64 68 80 93 89 75 73 79 76 69 58 49 50 45 37 28 25 33 51 63 56
15 19 22 39 74 97 103 98 91 68 45 59 85 100 98 97 100 92 79 60 49 48 43 38 34 34 33 34 39 40 32 28 34 35 36 35 37 37 34 33 31 30 28 27 28 27 29 34 40 45 54 52 43 54 83 100 96 98 101 98 101 100 99 103 104 100 98 102 101 94 88 76 83 104 95 76 68 68 77 87 89 77 69 74 73 63 53 50 49 39 27 24 35 48 55 53 54
12 16 18 24 56 91 102 101 93 63 52 68 80 96 99 96 101 100 94 68 44 45 43 37 36 33 32 33 36 44 34 26 32 34 36 37 39 39 37 38 36 35 32 31 30 30 30 32 41 48 55 65 61 45 55 89 102 98 100 100 101 102 104 105 101 100 99 103 103 94 85 77 88 104 99 84 71 69 73 79 88 77 63 61 57 52 49 49 42 27 24 33 42 42 39 45 65
11 13 15 20 53 94 99 100 98 65 66 90 86 95 100 96 100 101 98 74 50 47 45 42 39 33 33 32 34 44 38 28 28 31 36 36 38 40 40 42 40 39 37 36 33 32 32 33 42 53 61 70 77 68 50 62 92 102 99 100 101 99 104 103 99 100 100 102 104 98 89 83 88 99 101 86 70 68 71 80 89 75 58 53 50 49 47 41 28 23 32 38 39 43 53 67 81
10 10 13 15 46 96 98 91 103 77 68 93 98 99 94 94 99 95 99 89 66 53 50 48 42 36 35 33 32 41 42 33 27 29 33 33 41 45 41 43 44 42 41 39 37 36 35 36 43 56 68 77 85 88 72 52 66 95 102 99 99 100 101 101 100 100 100 101 105 102 92 88 88 95 101 85 66 70 80 89 88 69 55 52 51 48 40 28 23 31 38 36 45 68 84 91 96
10 9 12 10 30 83 94 78 99 91 69 78 92 98 92 94 99 93 98 98 78 60 56 55 47 40 38 36 33 37 40 35 29 30 30 29 41 47 41 44 47 45 43 41 39 38 38 38 44 58 71 86 95 96 90 68 52 72 95 100 98 100 100 99 100 100 100 100 105 103 90 91 91 94 102 79 60 76 93 93 81 63 54 53 50 42 29 22 29 37 37 42 62 87 100 103 106
11 9 11 11 18 56 75 64 84 100 84 74 86 101 98 98 105 101 102 100 78 61 67 69 55 45 42 38 34 35 34 33 31 29 30 30 34 37 40 46 47 47 45 41 39 37 40 42 44 55 72 93 104 97 94 85 62 60 80 99 100 98 100 100 99 99 101 99 105 104 91 96 98 100 100 70 63 89 100 91 72 58 55 52 45 32 23 29 41 45 50 65 84 100 107 104 105
11 10 10 13 14 29 43 41 56 92 99 81 85 96 96 100 104 105 107 97 73 64 77 80 69 56 48 42 35 34 32 31 32 30 31 33 33 34 41 48 48 49 48 45 41 37 39 44 46 51 68 94 108 95 88 92 81 68 68 85 100 101 99 100 100 100 101 99 104 105 99 103 101 102 95 67 75 100 100 84 65 60 58 48 38 25 26 46 64 74 83 93 100 105 106 101 100
10 10 10 12 13 15 21 21 26 67 96 87 80 78 86 99 99 105 106 87 72 69 69 74 81 70 56 47 38 35 33 31 32 33 32 34 37 37 40 45 50 50 49 49 46 43 39 41 48 52 62 89 108 91 75 85 88 83 72 71 88 100 99 100 100 99 101 100 103 106 103 103 99 102 93 72 87 106 97 78 64 64 57 43 32 21 32 64 86 98 101 101 104 104 102 100 100
9 9 10 10 12 11 13 14 13 40 72 78 76 72 82 97 99 103 95 87 85 68 52 64 87 82 65 52 42 38 35 33 33 35 35 33 37 38 39 41 46 46 43 46 47 47 42 39 46 54 63 85 108 89 63 71 84 88 81 69 70 85 96 100 102 101 101 99 102 107 103 101 100 102 95 83 94 105 94 75 65 64 52 38 27 21 47 78 83 90 100 101 102 101 101 101 100
9 9 9 9 10 11 10 12 12 23 43 58 73 79 82 86 95 88 73 89 96 70 55 68 89 89 74 59 53 53 43 36 36 36 36 33 34 36 38 37 38 37 34 37 42 46 45 42 45 52 67 90 106 86 60 64 83 93 86 71 59 65 83 93 102 103 100 100 103 104 100 98 98 102 100 93 100 103 90 71 62 59 45 34 23 30 66 78 65 75 95 104 104 100 100 100 97
8 8 9 9 9 10 10 10 11 14 23 43 68 86 84 79 85 68 50 70 81 75 78 81 84 82 76 68 69 73 58 44 41 40 37 31 31 32 33 34 32 30 29 32 35 42 48 47 44 47 69 98 101 82 63 58 78 98 87 70 54 51 66 81 96 101 99 102 94 86 88 91 94 102 97 95 104 97 80 64 59 53 39 30 22 42 78 69 55 72 91 105 108 102 99 97 96
8 8 8 9 8 9 9 9 11 10 12 28 52 71 72 67 69 54 38 49 59 72 91 87 76 72 77 76 77 84 75 65 58 49 42 35 32 29 28 30 27 25 26 29 31 38 50 52 45 42 69 103 95 71 60 55 76 94 78 64 53 43 56 79 96 97 97 102 92 79 85 93 96 98 94 98 100 80 65 60 58 47 33 29 25 53 82 65 58 73 89 106 106 101 95 87 94
7 7 7 8 8 8 9 9 10 10 10 15 30 41 42 43 48 42 32 39 48 67 95 91 72 73 83 78 76 86 89 89 80 62 53 49 44 32 23 24 22 21 24 28 29 36 52 56 46 41 70 105 93 64 49 55 83 87 62 52 47 39 51 80 97 96 93 101 99 85 87 95 95 96 99 98 83 66 63 61 54 40 31 28 30 62 83 70 66 73 90 104 102 100 85 69 87
6 7 7 7 8 8 8 9 8 10 10 10 13 16 19 22 27 31 29 31 42 64 90 88 73 76 83 75 69 78 88 95 90 79 72 67 62 41 20 19 19 17 23 29 28 37 57 58 50 54 80 103 96 72 47 56 86 78 53 44 40 37 50 77 95 100 99 100 100 91 89 94 98 102 98 85 71 67 65 57 47 35 32 28 35 69 86 78 71 71 85 96 102 103 78 63 89
6 6 7 7 7 7 8 8 8 9 9 10 9 10 17 21 20 28 31 28 40 58 64 67 69 71 82 78 65 68 80 90 91 90 87 77 75 52 19 16 17 14 23 30 31 42 59 61 64 78 95 102 99 85 56 59 80 69 53 44 40 46 59 76 90 101 101 99 99 95 95 101 105 99 85 76 70 64 56 48 40 33 33 28 40 73 84 79 67 63 76 88 97 90 71 71 87
5 6 6 7 6 7 8 7 8 8 8 9 9 9 13 19 21 27 30 27 36 45 42 49 56 65 88 86 67 67 74 87 91 90 87 79 84 61 21 16 16 14 22 31 35 47 63 73 88 98 99 97 100 95 65 59 71 65 63 59 60 69 72 79 92 103 103 99 99 97 102 105 97 84 78 73 59 51 48 42 37 35 32 27 44 68 76 74 59 58 74 80 79 72 71 78 76
5 5 5 6 6 7 7 7 8 7 8 8 8 9 9 11 15 19 23 27 32 32 35 42 38 54 90 90 74 74 75 85 90 87 84 84 92 65 23 19 18 14 22 33 39 52 74 89 94 87 81 86 98 99 69 57 66 65 72 77 81 85 82 90 98 100 98 95 96 98 99 91 82 80 76 58 42 44 45 40 38 35 30 31 46 61 72 70 53 60 74 69 69 72 69 64 56
5 6 5 5 6 6 6 7 8 7 8 8 8 8 9 8 12 19 19 24 32 28 28 29 21 38 81 94 85 83 82 86 86 82 83 93 98 65 28 24 21 16 22 34 44 60 86 93 78 60 66 87 101 100 72 58 65 66 77 87 91 93 91 94 94 90 87 89 93 94 90 85 85 80 60 41 41 46 43 42 39 31 30 35 45 57 72 66 49 61 68 64 72 70 54 49 56
6 6 6 6 5 6 6 6 7 8 7 8 8 8 9 8 11 20 18 19 30 29 19 15 14 36 80 100 91 84 78 78 80 73 77 96 100 71 42 31 22 20 25 39 52 71 96 96 75 64 79 100 102 99 79 60 64 68 77 87 83 78 78 80 85 90 90 90 91 92 94 94 85 62 44 42 47 47 45 45 36 31 35 37 43 53 68 63 50 62 67 66 73 66 58 59 68
7 6 6 6 5 5 6 6 6 7 7 7 8 7 8 8 8 14 16 18 27 28 18 11 19 48 86 97 92 87 71 69 74 64 72 95 101 82 56 38 26 23 30 48 64 83 102 96 83 84 95 104 99 99 88 63 63 71 74 84 80 68 72 75 77 86 87 78 77 91 97 85 64 47 46 50 49 49 49 44 34 34 37 37 42 45 59 64 58 68 68 67 75 76 82 82 85
7 7 7 6 6 6 5 6 6 6 7 7 8 8 7 8 7 9 10 15 25 27 19 18 24 50 81 88 97 95 69 69 70 57 75 97 102 90 64 41 27 28 42 62 79 95 103 91 88 99 102 103 100 100 96 70 64 78 76 78 82 79 79 73 68 75 78 76 82 98 92 63 48 48 52 55 55 56 52 43 36 38 39 37 40 40 52 64 67 72 68 73 81 79 89 92 91
7 7 7 6 6 6 6 6 6 6 7 7 7 8 7 8 8 8 8 12 22 21 16 22 23 41 73 84 97 88 68 78 69 59 84 99 100 91 65 41 28 41 61 76 91 100 102 94 92 102 101 103 103 99 102 82 63 80 92 88 89 87 84 78 77 76 76 90 99 92 70 49 49 55 58 62 65 64 59 47 37 39 41 37 37 38 46 58 68 70 63 76 86 84 94 87 69
7 7 7 7 7 6 7 6 6 6 6 7 7 7 8 8 8 8 9 11 16 15 12 19 23 39 69 87 89 69 71 87 65 66 93 95 95 87 63 41 33 55 72 81 98 101 99 94 92 101 100 99 101 98 103 94 67 69 89 100 101 93 90 92 93 89 88 96 89 64 52 53 60 64 66 68 69 68 65 54 42 39 40 38 35 33 38 45 56 61 57 71 88 94 98 79 59
7 8 7 8 8 7 7 6 6 6 6 7 6 7 7 7 9 7 9 10 11 12 10 18 31 42 66 90 74 50 78 91 63 79 97 87 85 75 58 40 39 63 71 77 97 103 96 89 91 99 100 96 96 99 102 99 81 61 62 84 102 99 92 92 93 95 90 77 60 49 56 62 64 65 64 64 64 63 62 56 48 41 38 38 34 28 29 33 40 46 51 69 86 95 94 78 63
8 8 8 8 9 8 8 7 7 7 6 7 6 7 7 7 8 7 9 8 8 11 9 26 49 50 67 88 58 49 93 89 69 93 96 84 79 65 58 48 47 65 75 81 94 103 96 90 97 96 97 96 92 99 101 98 86 58 48 66 86 84 70 65 65 66 60 49 47 51 58 63 66 69 68 68 68 66 61 52 46 41 38 35 31 28 25 25 32 41 56 75 84 89 91 78 59
9 9 8 8 9 8 9 7 8 7 6 7 6 7 7 7 8 7 9 8 9 13 7 34 73 68 62 67 49 69 106 85 81 103 96 90 79 66 71 62 54 63 81 98 98 100 95 92 98 91 93 93 87 95 99 100 84 48 41 52 56 49 38 38 39 39 41 43 49 53 61 71 78 81 82 79 75 74 62 45 39 38 35 32 30 27 23 28 39 52 72 85 84 82 78 65 50
10 11 9 9 9 9 9 8 8 8 7 7 8 8 7 8 8 7 9 8 10 16 9 29 79 82 51 46 61 91 102 80 81 89 89 98 82 75 88 73 58 58 76 101 102 99 97 98 96 87 93 87 81 94 95 101 83 36 29 39 35 30 28 33 35 37 42 46 54 63 70 73 72 71 72 70 67 67 56 38 34 34 31 30 28 24 26 41 54 67 82 90 91 87 77 66 61
12 12 11 10 10 10 11 13 13 9 8 7 8 11 10 9 10 9 12 13 9 12 11 14 47 65 42 42 74 95 93 81 72 63 76 99 83 77 93 79 58 52 65 88 100 101 98 100 91 82 95 85 78 93 95 101 82 33 22 29 27 27 28 32 34 37 42 50 59 62 57 48 43 40 41 46 48 49 41 31 30 30 29 26 23 24 36 51 58 69 84 91 98 97 88 82 85
15 13 13 11 11 11 13 19 20 16 13 9 12 20 24 17 11 13 20 24 23 18 15 10 17 29 32 45 76 96 94 77 61 54 69 90 81 71 82 77 51 42 58 71 85 99 100 99 83 77 95 84 75 90 95 100 81 38 22 27 29 28 29 31 31 35 40 46 47 40 33 25 22 24 26 30 31 31 29 27 31 29 26 23 22 31 44 51 56 70 87 94 98 98 94 93 99
18 15 14 13 12 13 16 22 27 28 24 16 18 27 39 36 21 18 22 29 51 59 45 32 20 13 22 39 63 94 100 68 39 39 56 77 81 68 69 71 45 34 55 64 68 89 103 100 82 81 91 77 76 87 89 97 83 49 29 27 32 32 33 33 28 30 31 32 30 25 22 19 19 20 21 22 21 23 26 28 31 28 24 24 27 38 45 51 64 80 92 93 88 82 78 77 79
21 19 17 15 13 13 16 22 30 37 35 27 26 30 47 62 50 33 22 19 55 89 78 58 43 23 17 23 40 70 85 60 28 26 48 71 81 74 65 63 42 28 50 65 70 86 103 100 88 90 81 65 80 86 84 96 87 68 49 33 36 39 36 32 24 22 23 23 22 21 20 18 20 19 18 20 21 23 26 28 30 27 28 30 35 44 52 65 79 83 87 88 78 71 69 62 55
21 21 20 18 15 14 13 18 25 33 36 30 27 24 31 51 55 43 29 16 33 68 76 67 57 42 25 22 34 47 48 41 30 37 57 70 80 79 66 59 40 27 39 53 64 81 97 99 96 99 74 55 83 89 83 97 92 85 76 48 43 51 43 32 25 19 19 22 21 20 21 20 20 21 22 23 23 24 26 27 29 30 33 38 45 56 67 75 77 75 80 85 80 75 77 74 65
21 22 22 21 20 18 16 17 20 28 40 44 44 43 40 47 59 57 46 35 36 53 68 63 52 52 48 38 41 47 44 46 55 72 78 74 83 78 64 63 45 28 32 32 41 64 87 97 97 103 80 52 78 96 89 96 96 96 95 67 51 66 65 41 27 22 18 22 24 22 22 22 22 24 24 24 25 26 26 27 30 34 41 50 60 66 69 69 64 67 79 85 84 80 81 84 81
21 22 24 25 23 22 23 23 23 25 34 46 58 73 78 76 82 83 70 55 51 59 71 66 47 48 57 44 39 56 71 77 79 86 81 75 84 71 59 70 53 33 34 23 22 45 73 91 94 101 88 58 70 99 98 96 97 97 103 87 60 70 84 57 32 26 20 20 24 23 22 23 23 24 25 25 24 24 26 30 32 39 51 59 65 64 60 59 54 59 79 91 91 86 80 79 78
22 22 23 25 26 25 24 24 29 32 32 31 37 54 69 69 69 75 74 63 56 57 67 71 55 41 37 27 29 53 79 92 88 83 78 75 78 64 57 73 64 48 50 31 16 31 56 79 90 91 87 70 67 90 101 98 100 97 101 101 74 66 82 69 45 32 21 19 22 23 22 22 23 23 25 25 24 27 28 30 37 48 58 59 59 57 53 52 47 48 69 82 85 88 84 79 80
21 22 22 23 26 28 26 21 22 30 37 35 31 34 48 61 61 59 62 62 61 59 61 68 60 36 21 15 24 46 67 83 87 83 81 76 71 61 57 71 74 68 70 50 20 22 44 67 82 82 82 81 72 83 101 98 100 103 101 105 92 77 80 73 55 40 25 17 19 22 21 20 22 21 24 25 26 29 28 34 49 56 56 55 57 55 45 41 40 41 51 57 61 78 88 88 89
20 21 22 22 23 26 29 26 20 19 25 32 36 37 46 62 70 67 69 74 76 72 65 67 66 50 35 23 22 38 54 61 63 63 67 70 67 61 56 65 79 83 84 68 31 21 44 65 78 81 84 90 83 86 102 97 97 106 101 100 101 92 89 81 59 40 28 19 14 19 20 17 21 22 24 27 26 29 36 46 56 55 54 62 66 61 48 41 44 49 53 51 49 63 79 85 89
19 20 21 22 22 22 24 26 25 22 19 21 27 35 47 61 70 73 82 94 97 92 83 78 76 68 57 42 29 36 52 58 56 55 58 60 57 53 51 57 74 89 93 76 39 24 46 69 82 84 79 86 90 90 101 101 96 103 102 99 102 99 96 95 74 41 25 23 14 14 19 16 19 24 25 28 33 40 49 54 53 55 65 72 70 62 53 48 50 56 58 53 46 53 69 75 74
21 20 20 21 20 21 22 22 23 24 23 21 20 22 33 48 61 69 82 97 102 101 99 96 93 86 76 65 54 53 65 76 80 76 64 53 50 51 51 54 69 91 98 77 43 29 45 67 83 87 74 78 92 88 92 103 99 99 102 97 98 100 98 102 95 58 25 21 19 13 16 17 18 24 27 33 47 54 55 56 57 66 73 69 59 50 46 45 48 52 52 48 44 49 62 68 63
28 25 22 21 20 20 21 21 22 23 23 24 23 20 20 26 39 53 69 85 94 96 100 104 105 102 96 88 82 82 90 98 97 85 67 55 54 54 52 54 66 88 96 77 47 34 44 61 78 88 74 70 89 90 84 95 100 99 101 96 91 95 96 99 104 85 42 19 21 18 14 17 19 24 30 42 58 62 59 61 68 76 77 67 54 42 42 48 50 50 49 47 46 48 56 66 70
35 31 27 23 22 21 21 21 22 23 24 25 25 24 22 19 21 31 48 66 76 78 85 99 106 105 104 102 99 98 100 103 97 83 76 74 66 59 58 57 64 88 96 73 48 39 47 58 70 84 76 63 82 97 84 81 93 100 100 100 96 95 97 97 101 102 72 30 19 22 16 16 19 23 32 46 59 64 65 69 74 79 79 72 59 47 45 50 50 47 46 44 44 46 52 62 75
40 36 34 28 23 22 22 23 22 23 27 29 28 26 25 24 19 17 28 46 58 57 59 77 96 103 103 102 104 103 96 91 86 80 82 85 75 68 67 58 57 74 74 52 47 55 57 56 64 80 78 63 77 100 90 74 81 95 99 100 102 100 101 101 98 105 95 51 23 24 21 16 19 23 30 40 51 58 63 68 73 76 76 73 66 56 47 44 44 41 40 42 42 43 46 57 72
43 39 35 31 27 23 22 24 25 26 29 31 31 30 26 24 23 19 18 26 40 46 44 48 65 83 94 95 98 101 93 81 74 68 67 65 59 56 55 49 49 53 44 35 54 78 75 61 64 81 78 66 79 100 94 77 74 86 98 100 100 100 100 101 100 104 103 72 37 28 25 19 17 21 27 33 39 47 54 60 64 65 66 66 65 59 48 40 38 39 43 47 46 43 41 48 64
41 39 37 33 30 27 24 22 24 28 30 31 33 38 38 29 23 22 20 19 24 33 37 35 36 45 58 68 77 86 86 76 67 62 55 51 50 49 49 50 50 43 31 27 47 75 79 66 70 84 77 68 84 97 88 79 74 77 91 101 100 99 99 101 101 102 107 93 62 40 29 23 20 18 22 27 29 35 44 51 51 50 53 57 59 57 50 42 38 39 46 50 49 48 44 43 52
41 39 39 38 35 31 27 24 23 26 28 31 33 43 55 50 33 24 23 23 24 30 42 50 50 43 35 32 38 54 70 70 63 57 52 51 54 55 55 54 48 39 30 23 34 56 59 56 75 88 78 75 92 97 84 79 81 78 82 94 102 101 100 101 99 99 105 106 92 68 43 28 24 20 18 22 24 25 32 40 42 40 43 47 49 50 48 44 41 40 42 45 45 47 49 48 49
49 46 44 43 40 33 29 27 26 25 25 31 36 44 54 53 42 36 32 28 26 35 57 81 91 78 57 40 33 43 60 66 65 61 52 47 47 50 52 50 42 34 28 27 40 55 48 46 73 86 79 87 98 94 83 83 91 91 85 87 96 101 99 99 100 100 102 103 102 93 73 50 35 26 21 19 21 23 24 28 32 33 35 38 40 42 41 40 39 38 38 39 40 40 44 50 52
61 59 51 45 42 37 32 29 28 29 27 28 35 43 43 39 39 42 41 35 30 34 54 86 107 101 87 75 67 71 77 71 71 79 73 54 41 42 43 40 35 28 32 47 61 70 67 63 74 80 79 87 86 76 76 83 94 103 99 89 88 96 101 99 100 104 103 98 93 91 89 79 59 41 30 23 19 21 23 22 25 28 29 31 33 34 35 34 32 32 32 32 34 35 36 42 49
73 71 62 52 44 37 34 31 30 32 33 31 32 36 36 38 43 42 38 38 38 38 45 65 88 100 101 93 85 92 93 77 75 91 95 79 55 40 34 33 34 32 49 80 91 89 93 89 83 83 87 88 76 66 72 81 91 101 104 96 89 92 100 100 99 102 102 97 93 89 89 91 83 61 45 38 29 23 24 23 22 24 25 27 29 30 30 30 28 26 26 26 27 30 31 33 39
78 74 69 61 50 40 37 37 33 32 39 42 36 31 34 41 46 45 42 39 41 44 45 51 62 73 87 92 88 92 85 71 82 97 98 95 81 58 47 50 55 57 75 101 104 99 103 102 95 94 98 96 82 73 79 85 92 101 103 100 99 98 100 101 100 100 100 98 98 100 91 83 86 81 70 61 46 30 26 27 24 24 24 24 26 27 26 26 26 25 24 24 24 27 30 29 30
Wind_Speed
8 9 12 11 9 9 10 11 12 12 12 12 12 11 9 8 9 8 6 5 4 5 5 4 4 5 7 7 10 12 12 13 13 15 18 21 23 24 24 24 23 23 23 21 19 21 21 19 16 12 9 8 7 7 5 3 5 7 4 2 3 3 4 4 5 6 6 6 6 8 9 11 12 13 13 14 16 18 20 20 18 18 20 21 22 21 22 22 22 22 21 21 20 20 21 21 22
8 8 10 12 10 9 8 10 12 12 10 9 10 10 9 8 7 5 3 3 3 4 4 4 5 6 7 8 10 12 11 12 13 16 18 21 23 24 23 23 24 23 21 19 20 21 21 20 17 13 10 6 6 5 4 4 6 8 6 5 5 4 5 5 6 7 8 8 8 8 10 12 13 13 13 14 16 18 19 18 17 18 19 19 20 20 21 22 22 21 21 20 20 21 21 21 21
8 7 9 11 11 9 8 9 11 11 9 7 8 8 8 6 3 2 2 3 3 4 4 4 5 6 7 8 10 11 11 11 13 16 18 21 23 23 22 23 25 23 20 19 20 21 21 21 18 15 11 6 4 4 5 5 6 8 7 5 5 5 7 7 8 8 9 9 9 10 12 13 12 12 12 15 16 18 19 18 18 18 19 18 18 19 21 22 22 21 21 20 20 20 20 21 22
8 8 7 9 10 10 10 10 10 11 9 6 7 6 5 3 3 4 2 2 3 3 4 3 4 5 6 8 10 10 11 11 13 15 17 20 22 23 22 23 25 23 21 20 20 21 21 20 19 16 12 8 5 4 6 5 6 7 7 6 7 6 8 10 9 9 10 10 11 13 13 12 11 11 12 15 16 18 19 19 20 20 19 18 17 19 21 23 22 22 21 21 20 20 20 21 23
10 9 7 10 12 11 11 9 9 9 8 7 6 5 4 3 4 3 1 3 3 3 5 4 4 5 6 8 9 9 10 11 13 15 17 19 22 22 22 22 24 23 22 21 22 22 22 21 20 18 14 10 7 5 6 5 5 7 6 6 7 7 9 11 10 10 10 12 13 12 11 10 10 10 12 14 15 18 19 20 20 21 20 18 17 19 22 23 23 22 21 21 21 21 22 22 21
13 11 8 11 12 11 11 10 9 8 8 8 6 5 4 3 3 3 1 2 2 4 6 4 5 5 6 7 9 9 9 11 13 14 17 19 21 21 21 23 23 23 22 22 22 23 24 24 22 20 17 12 8 7 6 5 4 6 6 6 7 7 9 11 10 10 11 13 13 11 10 10 10 11 12 13 15 18 20 20 19 20 20 18 18 19 22 23 23 22 22 22 22 22 22 19 15
14 12 10 11 12 11 12 12 11 10 10 9 7 4 3 4 5 5 3 1 0 5 8 6 6 6 6 7 8 9 8 10 12 14 17 19 21 21 21 24 24 24 23 23 23 23 24 25 24 22 18 14 10 8 6 4 5 6 6 7 6 7 11 13 10 10 12 14 13 10 9 10 10 11 12 13 15 17 19 18 18 20 20 19 17 18 22 23 23 23 23 23 23 22 18 13 10
16 14 13 12 11 12 14 15 14 12 12 11 9 6 4 4 6 7 6 4 2 6 9 8 8 7 7 8 8 9 8 8 11 14 17 18 20 20 21 23 24 25 25 24 24 23 23 24 24 24 21 15 11 8 6 5 7 6 6 8 8 10 14 14 12 12 14 16 12 10 9 9 10 12 12 13 15 16 17 17 19 20 21 19 17 19 21 22 23 23 23 23 21 16 12 9 8
18 17 16 14 12 13 15 16 15 13 13 13 10 8 6 5 7 9 9 8 7 9 10 10 9 8 8 8 8 8 8 6 9 12 15 17 19 19 20 22 24 25 25 24 24 23 23 23 23 23 22 18 13 8 6 7 9 9 9 10 11 14 16 16 15 15 18 18 13 10 9 9 11 12 12 14 16 16 16 17 19 20 20 18 17 18 21 22 22 23 23 20 14 11 9 7 8
20 19 18 17 15 14 15 16 17 14 13 13 11 9 5 5 9 11 12 12 12 11 11 11 10 9 8 7 7 7 8 6 7 10 12 15 17 18 20 21 23 24 24 24 24 24 24 23 22 22 21 20 16 10 6 7 10 13 13 14 15 17 18 18 17 17 21 19 13 11 10 10 11 11 13 14 16 16 16 17 19 20 19 17 16 19 21 21 22 23 19 12 9 8 7 9 12
21 21 20 19 17 16 16 16 18 16 14 13 14 10 6 8 13 15 15 14 14 14 13 12 10 9 8 7 7 6 8 7 6 9 11 12 14 17 19 20 22 23 24 24 25 25 25 24 22 21 20 20 19 15 8 5 9 14 16 17 17 19 19 17 16 19 22 19 12 12 10 10 10 10 13 14 16 16 16 17 18 18 17 16 17 19 20 21 22 19 11 7 8 8 11 15 17
23 22 21 20 18 18 18 18 18 19 17 16 17 12 8 9 12 15 17 15 14 15 14 13 11 10 9 8 7 6 7 7 7 8 9 11 13 15 18 19 21 23 23 24 25 25 26 26 24 22 21 19 19 18 12 6 7 12 17 18 17 18 17 15 16 19 21 16 11 11 11 11 10 10 12 14 15 15 16 17 18 16 15 16 17 18 20 21 18 9 6 8 10 14 17 19 19
25 24 23 22 21 19 20 19 18 21 22 19 17 12 8 8 10 15 18 18 17 16 14 13 11 11 10 8 7 6 7 8 7 8 9 12 14 16 18 19 20 22 23 24 25 25 26 27 26 23 22 20 19 19 16 10 5 8 14 17 17 19 18 17 19 20 20 15 11 11 11 12 12 11 12 14 14 15 16 17 16 14 15 16 17 18 21 18 9 5 8 10 14 18 20 19 18
27 26 25 25 24 21 20 21 20 21 23 21 17 13 9 8 12 18 20 19 19 16 15 14 12 12 11 10 8 7 7 8 8 7 8 11 14 15 16 17 18 20 22 24 25 26 27 28 28 26 23 22 20 19 18 13 7 5 8 11 13 16 19 20 22 22 20 14 10 11 12 12 13 11 12 14 14 15 16 15 14 14 15 16 16 19 19 11 5 8 10 14 16 18 18 17 16
30 28 27 27 26 25 22 22 21 21 23 23 20 17 14 13 17 22 22 20 19 16 14 13 12 12 11 10 9 7 8 8 8 7 6 8 10 12 14 15 17 19 21 23 25 27 27 28 29 28 26 24 23 21 18 15 10 6 7 9 10 13 17 18 19 18 15 12 10 12 12 12 12 11 13 13 13 15 15 13 14 14 15 15 17 19 12 5 10 12 14 14 14 16 16 16 15
34 32 30 29 28 29 27 25 23 23 24 25 24 21 19 19 21 22 23 21 19 17 14 13 12 12 12 11 10 8 8 8 8 7 6 6 7 9 12 13 15 17 20 22 25 27 28 29 30 30 29 27 27 26 21 15 11 8 7 10 10 12 14 13 13 12 10 10 10 11 11 11 11 11 13 13 13 14 13 13 14 14 14 15 17 14 5 10 12 14 14 13 13 14 15 15 16
37 34 32 32 31 31 30 28 26 26 26 26 27 25 21 22 22 22 22 21 19 17 15 14 13 13 12 12 10 9 9 8 8 8 7 7 7 9 11 13 15 17 19 22 24 27 29 30 31 32 31 31 32 29 23 16 12 10 9 10 11 12 12 10 9 9 9 10 11 11 11 12 13 13 14 13 13 14 13 14 15 13 14 15 14 7 7 10 10 12 13 14 14 15 16 16 16
39 38 36 35 35 34 32 29 29 30 29 28 28 26 24 23 22 22 22 20 19 17 16 15 13 13 13 12 11 10 10 9 9 9 8 9 10 11 12 13 15 17 19 21 23 26 29 30 31 33 33 33 34 32 25 18 14 12 11 10 13 16 17 16 12 10 11 12 12 11 12 14 16 15 15 13 13 15 14 14 14 13 14 14 9 3 10 10 11 12 14 16 16 16 15 14 14
42 41 40 39 38 37 35 32 31 32 30 28 28 28 27 26 24 22 21 20 19 18 18 15 12 13 13 12 11 11 10 9 9 10 10 10 10 11 12 13 15 17 20 21 23 25 28 30 31 33 35 35 34 33 27 20 17 14 12 11 12 16 20 20 14 9 10 11 11 11 13 16 16 16 15 14 15 15 14 13 13 13 13 10 3 8 13 12 12 13 15 16 16 15 11 12 14
45 44 43 42 41 39 37 35 34 34 33 30 28 30 29 27 26 24 22 21 20 20 18 15 13 13 13 11 10 10 10 9 9 10 10 10 11 12 13 14 15 18 20 22 23 24 27 29 31 33 34 35 35 33 28 22 19 16 12 11 10 12 16 16 13 11 9 9 11 12 13 15 15 15 15 14 15 14 13 13 13 13 11 6 3 12 15 13 13 13 15 15 14 12 11 14 12
48 47 46 45 44 42 40 39 38 37 36 34 31 32 30 28 27 26 25 23 22 21 18 16 15 14 13 11 9 9 8 8 9 10 10 10 11 12 13 15 16 19 21 23 23 24 26 28 30 32 34 34 34 33 29 23 19 16 12 10 9 10 11 12 13 14 10 10 14 14 12 13 14 15 15 14 13 12 13 13 12 12 8 1 8 16 16 14 13 13 14 13 11 10 11 13 9
50 50 48 48 47 45 43 42 41 40 39 37 36 35 33 31 29 28 28 25 23 22 19 16 15 15 14 12 10 9 8 8 9 10 10 11 13 14 14 16 17 20 22 22 23 23 26 28 29 32 34 33 34 33 28 23 19 16 13 9 8 8 8 10 12 14 14 13 14 14 12 12 14 16 15 13 11 12 13 12 12 11 5 4 12 19 18 15 14 13 13 11 10 9 11 12 9
52 51 51 51 49 47 46 45 44 43 41 41 40 38 35 34 32 31 30 27 24 23 21 17 16 14 14 14 12 11 10 9 9 10 11 13 15 15 15 17 18 20 21 22 22 23 25 27 30 32 32 33 35 33 28 23 19 16 12 8 6 6 6 8 11 15 14 11 10 11 11 12 15 15 13 10 11 12 12 11 11 8 2 7 16 21 18 15 14 13 13 12 10 9 11 12 10
52 53 53 53 51 49 49 48 47 45 44 43 42 40 37 35 33 32 30 27 26 25 23 21 17 16 16 16 14 14 12 11 10 12 13 15 16 16 17 18 18 20 21 20 21 23 25 28 30 30 30 33 36 34 28 23 18 15 12 7 5 4 4 5 9 12 11 8 8 9 10 12 13 12 10 10 11 12 11 11 9 4 2 10 19 21 17 15 14 14 14 12 11 10 11 10 10
51 53 54 54 52 51 51 50 49 48 47 45 43 42 40 37 35 34 31 28 28 27 25 23 20 18 18 18 17 16 14 12 13 14 16 17 17 16 18 19 18 19 20 19 20 22 25 28 28 27 27 31 36 36 29 23 18 15 11 7 5 3 2 3 6 8 8 7 8 9 10 10 10 9 9 11 11 10 10 9 6 1 4 13 20 21 17 16 16 16 14 12 13 12 11 9 10
50 51 53 54 54 53 53 52 51 50 49 47 46 44 43 41 38 37 35 31 30 30 28 25 22 20 20 20 18 18 16 14 14 16 16 17 16 16 18 19 19 19 19 19 19 21 24 25 25 25 25 29 34 35 29 22 18 14 11 8 5 4 2 2 4 5 4 3 3 5 7 9 9 9 10 10 9 8 8 7 3 2 8 17 21 20 18 16 17 16 13 14 15 13 11 10 11
48 49 51 53 53 55 55 54 53 52 51 50 48 46 45 43 40 39 38 35 32 31 30 27 25 24 24 22 20 18 17 16 16 16 16 16 16 16 19 20 19 19 19 18 18 19 21 22 23 25 26 28 32 33 29 22 17 14 10 6 5 5 5 4 4 3 2 2 3 4 6 7 8 8 9 9 7 7 6 3 2 5 12 19 22 21 18 17 18 16 15 16 16 14 13 12 11
47 49 51 52 53 54 55 56 55 54 53 52 50 49 47 44 42 40 38 37 35 33 32 30 27 26 26 25 22 19 19 18 17 16 16 17 16 16 19 20 19 19 18 17 16 17 19 19 23 25 26 28 30 31 29 23 17 13 9 5 4 4 5 5 4 4 4 4 5 4 5 5 6 7 7 6 5 4 2 1 4 9 15 20 23 21 18 17 18 16 16 17 16 15 13 11 9
46 48 50 51 52 52 54 55 56 55 55 54 52 51 49 46 45 43 40 39 37 34 32 31 29 28 29 28 24 22 22 21 18 17 17 16 16 17 20 20 19 19 18 16 14 15 18 20 23 25 25 27 29 30 30 25 18 14 10 7 5 5 6 6 5 4 4 5 6 4 4 6 7 6 4 3 3 2 0 2 6 11 15 20 23 21 18 18 17 16 17 16 14 13 11 9 8
45 47 49 51 51 51 53 54 55 55 55 55 54 52 51 48 47 46 43 41 39 37 34 33 31 30 30 30 27 25 25 23 20 18 17 16 17 19 21 19 17 17 16 13 11 12 17 20 22 24 26 27 28 31 30 26 19 14 12 9 7 7 7 6 5 5 5 6 5 5 6 7 5 3 1 1 1 2 1 4 8 11 15 20 22 20 20 19 16 16 17 15 12 11 9 9 8
45 46 48 49 49 50 51 52 53 54 54 55 55 54 52 50 48 47 45 43 42 40 37 36 34 32 30 30 29 27 26 26 21 18 18 18 19 21 21 17 15 14 12 9 8 11 15 17 19 23 26 26 28 30 30 27 20 14 12 11 10 9 7 7 7 7 6 5 5 6 7 5 2 1 0 1 1 1 2 4 8 12 15 19 21 20 21 19 16 16 17 14 12 10 8 6 6
44 45 46 47 48 49 50 51 52 52 53 54 54 55 54 52 50 48 47 45 43 42 40 39 37 34 32 31 29 27 27 26 21 18 20 20 21 21 17 13 12 11 8 7 6 10 11 12 14 20 25 25 27 29 30 28 22 15 13 11 11 10 9 9 9 8 5 5 6 6 4 2 1 0 1 1 1 1 2 5 9 12 15 18 20 20 22 20 16 16 16 14 12 10 6 5 6
42 43 45 45 46 47 49 50 51 52 52 53 53 54 54 53 52 50 49 47 45 43 42 41 39 37 34 32 30 28 27 25 21 19 22 21 19 16 12 12 11 9 7 5 5 7 8 10 12 17 22 24 25 27 29 29 24 18 15 12 11 10 10 9 9 8 7 7 7 4 2 2 2 2 2 3 3 3 4 6 10 13 15 18 19 20 22 20 17 17 18 16 13 10 7 6 8
38 41 43 44 44 46 47 48 49 51 52 52 52 53 53 53 53 52 50 49 47 45 44 42 40 39 37 34 32 29 27 25 21 22 24 21 16 12 11 12 10 8 7 5 4 4 8 12 13 16 20 22 23 24 28 29 25 21 18 13 11 11 10 9 9 8 7 6 4 2 3 4 4 5 5 5 5 6 6 8 11 15 16 18 19 20 20 19 20 21 20 16 13 11 9 8 10
33 37 41 42 42 44 46 47 48 50 51 51 51 52 51 52 52 52 51 50 48 46 46 44 40 39 39 37 34 30 29 25 22 24 24 20 15 12 12 12 9 7 6 5 4 5 9 12 14 16 18 20 21 22 26 28 25 21 18 14 11 11 10 9 7 6 4 3 3 4 4 5 5 5 5 6 6 7 8 10 13 16 18 19 19 18 19 22 23 22 18 13 10 9 8 9 13
29 33 37 39 40 40 43 44 46 48 49 49 49 50 50 51 51 51 51 50 49 47 47 46 42 39 38 37 34 31 30 26 24 25 24 21 17 13 13 13 10 8 6 4 3 5 9 12 13 14 16 18 19 21 24 27 24 20 17 13 11 11 10 8 7 6 5 5 5 5 5 4 4 4 5 6 7 8 10 11 13 16 18 18 18 20 23 25 24 21 16 11 7 6 7 11 14
25 30 34 36 36 37 39 41 43 45 47 47 47 48 49 50 49 48 48 49 49 48 48 49 46 42 39 37 36 33 31 28 24 25 26 24 19 14 14 14 12 11 8 4 2 5 9 11 12 12 14 17 17 19 22 25 22 18 15 12 12 12 11 10 9 8 7 7 6 6 6 6 6 6 7 8 9 10 12 13 15 16 18 19 21 24 26 25 22 19 14 9 6 5 8 11 15
23 27 31 33 34 36 38 39 41 43 45 45 46 47 48 48 48 46 45 46 47 47 48 49 49 46 41 39 38 36 34 30 26 26 28 27 22 17 15 14 14 13 11 7 3 5 7 10 11 10 12 15 16 18 20 23 21 16 14 12 12 13 13 12 12 11 9 8 8 8 9 10 10 10 11 11 12 14 15 16 17 18 20 23 26 27 25 22 18 15 12 9 9 11 14 16 17
21 24 28 31 33 35 37 39 40 42 43 44 45 46 47 47 47 46 45 44 44 45 46 47 48 47 44 42 40 38 36 33 30 29 30 29 26 21 17 16 15 13 12 10 6 4 5 9 10 9 11 13 14 15 18 21 19 16 14 12 12 14 14 14 14 13 12 11 11 12 13 13 13 14 15 15 16 18 19 19 20 21 24 26 27 25 21 18 15 14 13 13 16 19 21 21 20
18 21 25 29 31 34 36 38 40 41 42 44 44 45 45 46 46 46 46 46 44 44 44 45 46 47 47 45 42 41 39 36 34 32 31 32 29 23 19 17 15 13 13 11 8 4 4 8 10 9 9 11 12 14 17 19 18 15 14 12 12 14 14 15 16 15 14 14 14 15 16 17 17 18 19 19 19 20 21 22 22 23 25 25 24 22 19 17 16 17 17 19 21 24 26 26 25
16 20 23 27 30 32 35 37 39 40 41 42 44 44 44 44 45 45 45 46 45 44 43 44 45 45 46 46 43 41 40 38 35 34 33 34 32 26 22 20 17 13 13 12 10 6 4 6 8 7 9 10 10 13 16 17 17 15 14 12 12 12 14 16 17 16 16 17 17 18 20 21 21 22 23 22 22 21 21 23 24 24 24 23 22 20 19 19 19 20 21 21 22 22 24 27 29
14 18 21 25 29 30 32 35 37 38 40 41 42 43 42 42 42 43 43 44 44 44 43 43 45 45 44 44 42 39 38 37 35 34 35 34 32 27 25 23 19 14 14 13 12 9 6 5 6 6 8 9 8 11 14 16 17 16 14 12 11 11 12 14 16 16 16 17 18 20 22 23 24 24 24 24 23 22 22 23 24 25 24 22 22 21 21 22 22 23 24 24 22 21 22 24 26
12 15 19 24 27 29 30 33 34 37 39 40 41 41 42 41 40 40 41 42 43 43 43 43 44 46 44 41 39 37 36 36 34 35 36 34 31 28 27 26 22 17 15 13 13 13 9 7 6 6 8 8 7 9 13 14 15 16 14 11 9 10 10 11 14 15 15 16 18 21 22 23 23 23 23 23 23 23 23 23 24 24 23 23 24 24 24 24 24 24 26 26 25 24 23 23 22
11 13 16 21 24 27 29 32 33 34 36 38 40 41 41 40 40 39 40 41 42 43 43 43 43 46 47 44 41 39 38 36 36 35 34 32 29 28 28 28 25 21 17 14 13 14 13 10 7 7 7 6 6 7 10 12 13 14 14 11 8 8 10 10 11 13 13 13 16 19 21 21 22 21 21 21 21 22 22 22 22 23 24 26 26 25 24 24 24 25 25 25 25 25 25 25 24
10 11 13 17 21 24 27 30 32 33 34 36 37 39 39 39 38 39 39 39 40 42 43 42 41 43 46 45 43 41 40 39 39 37 35 33 31 30 29 29 29 26 21 15 14 16 16 12 9 8 7 5 6 6 7 9 11 13 14 11 6 5 8 8 8 10 11 11 12 15 17 19 19 19 19 19 19 20 20 21 23 25 27 27 25 23 23 24 24 24 23 22 21 23 25 25 24
7 9 10 12 16 21 25 28 29 31 32 33 34 37 38 39 39 38 38 38 38 39 41 42 41 40 42 43 43 42 41 41 41 39 38 37 35 33 31 31 32 30 25 19 15 17 17 14 10 8 7 5 5 5 3 6 9 11 11 9 4 2 5 7 6 6 9 10 10 11 13 16 17 18 18 19 19 19 21 24 26 28 27 25 22 21 21 22 22 22 20 19 20 22 23 22 22
5 5 7 9 12 16 21 25 27 28 29 31 32 34 37 39 40 39 37 37 37 37 38 39 40 40 40 41 42 42 41 41 41 41 41 40 39 38 35 34 34 33 29 22 18 18 18 16 13 10 9 7 5 5 2 3 6 8 8 7 4 2 2 4 5 3 6 8 9 9 10 12 15 18 19 20 22 24 26 28 28 27 25 22 20 20 20 20 20 18 17 17 19 21 21 20 21
4 4 4 7 9 11 15 20 24 26 26 27 29 31 34 38 39 39 38 38 37 37 37 37 37 38 38 39 40 41 41 41 41 42 42 42 41 40 38 36 35 34 30 25 22 20 20 20 17 15 13 10 7 6 3 0 2 5 6 6 4 3 2 2 2 1 4 7 8 8 8 9 12 18 21 23 26 29 30 29 27 25 23 20 19 19 19 18 18 16 15 15 17 19 18 18 20
5 5 5 5 7 8 10 13 17 21 22 23 25 27 31 35 37 38 39 40 38 38 38 37 36 36 36 36 37 38 40 41 41 42 42 42 41 40 38 36 35 35 32 29 26 23 23 23 21 19 17 13 10 8 6 4 1 2 4 4 3 2 2 5 5 2 3 6 7 7 7 8 12 18 23 26 30 32 31 28 26 24 20 18 17 17 17 17 16 15 14 13 14 15 16 17 18
6 6 5 5 5 6 8 9 11 15 18 20 22 24 26 30 34 37 39 40 40 39 39 38 37 37 36 35 35 35 37 39 41 42 42 42 41 39 38 37 36 36 35 33 30 27 26 26 24 22 20 16 13 11 9 7 6 3 2 2 2 1 3 6 7 5 4 6 7 7 7 8 12 18 24 28 31 32 29 26 25 22 18 17 16 16 16 16 15 14 13 11 11 11 13 15 15
6 6 5 4 5 4 5 7 8 10 13 17 19 21 24 27 31 35 37 39 40 40 40 40 40 39 39 37 35 34 34 36 39 42 44 45 44 42 41 40 38 38 37 36 33 30 29 27 26 25 22 19 16 14 13 11 10 7 3 1 2 2 3 6 9 8 7 8 9 8 8 9 12 18 23 27 30 30 28 25 23 20 17 16 16 15 15 14 14 13 11 9 9 9 11 12 12
7 6 6 4 4 4 3 4 6 7 11 15 17 19 21 25 28 31 34 37 38 38 39 41 42 42 42 41 38 36 36 37 38 41 45 46 45 44 43 41 38 35 35 35 35 32 30 29 28 27 25 21 18 16 15 13 12 10 6 3 3 2 3 5 8 10 9 10 11 10 10 10 12 17 21 25 27 28 27 25 23 20 17 16 15 15 14 13 13 11 10 8 7 8 9 8 8
9 7 7 6 4 4 3 2 3 5 9 13 15 17 19 23 26 29 31 34 35 36 37 39 41 42 43 42 41 39 38 38 39 40 43 45 44 43 42 40 37 34 32 34 36 35 33 31 30 29 26 23 20 18 17 16 14 12 9 7 5 3 3 5 7 10 10 11 12 12 13 13 13 16 20 22 24 25 25 25 24 21 18 16 15 14 14 13 12 10 8 7 6 5 5 5 6
11 9 9 8 7 6 4 2 2 3 7 10 14 16 19 23 26 26 28 31 33 34 35 36 38 40 41 42 41 41 40 40 40 40 42 43 43 42 41 39 37 34 33 34 35 35 35 34 33 31 27 23 20 19 19 18 15 13 12 10 6 4 5 5 6 10 12 12 13 14 15 16 16 17 19 21 22 23 23 24 24 22 20 18 16 15 14 13 11 10 8 6 5 3 2 3 4
13 12 11 10 9 8 6 4 2 2 3 6 11 16 20 24 25 25 27 29 31 33 34 35 36 38 39 39 39 40 41 41 40 39 40 42 43 42 41 39 38 36 35 35 35 35 35 35 34 32 27 23 22 21 21 20 17 15 14 13 9 6 6 6 6 10 13 13 13 13 15 17 19 19 20 21 22 22 22 23 24 23 21 19 18 17 15 14 12 11 10 8 7 5 4 4 5
14 14 14 13 11 10 8 6 3 3 3 5 8 14 19 22 23 24 27 29 30 32 35 36 38 38 37 36 36 37 39 40 38 35 35 38 40 41 41 39 38 36 36 36 36 34 33 33 34 31 27 25 24 22 20 20 19 17 16 16 14 10 8 8 9 11 14 15 14 13 14 17 20 22 23 23 23 23 23 23 23 24 23 21 20 19 18 16 15 14 13 12 11 9 8 7 8
16 16 16 16 14 12 10 8 5 4 4 5 7 11 15 18 21 24 27 28 29 31 34 37 40 41 39 37 36 36 36 38 37 33 31 33 35 38 40 39 38 36 36 36 35 32 31 32 33 30 27 26 25 22 20 19 19 18 17 17 16 14 12 11 10 11 13 14 15 15 15 17 20 23 25 26 26 25 24 24 24 24 24 23 22 21 20 19 18 17 16 15 14 12 11 10 10
19 19 18 18 17 15 12 10 8 5 4 5 7 9 10 13 18 22 25 27 28 29 31 35 39 41 42 40 38 36 36 37 37 35 32 31 31 34 37 38 37 36 36 36 35 32 31 31 32 31 29 27 25 23 21 21 20 20 20 19 18 17 17 14 11 10 10 11 14 16 17 18 20 23 25 26 27 28 27 26 25 25 25 25 24 24 22 21 20 19 19 18 17 15 13 12 12
Wind_Direction
149 141 134 141 141 136 135 130 130 128 130 128 126 129 128 131 127 118 106 81 53 42 33 19 18 12 5 5 3 1 1 3 3 358 357 358 357 356 356 355 356 354 355 2 7 9 14 13 8 359 342 325 311 302 293 260 211 210 170 158 235 258 273 289 292 289 292 294 300 305 309 314 316 314 312 313 320 328 330 331 329 329 330 331 332 331 331 330 328 326 324 321 319 317 315 314 313
161 154 141 147 153 148 143 138 136 130 131 133 130 131 135 142 138 125 102 73 34 13 16 15 14 12 11 11 7 5 3 3 1 359 359 360 359 358 359 1 0 358 0 6 8 9 12 13 9 360 349 330 309 296 280 225 213 229 208 210 245 260 274 288 293 295 295 295 298 301 311 317 317 315 316 322 328 333 336 335 331 328 329 332 332 332 331 330 328 325 323 322 320 318 316 315 315
178 167 142 147 159 157 157 150 140 133 133 138 128 131 141 142 145 141 99 64 32 343 343 9 14 12 7 1 1 5 5 2 360 360 2 3 1 359 3 8 7 7 9 9 8 8 10 12 9 358 348 333 300 274 260 227 211 222 220 229 244 259 280 287 291 295 296 298 296 298 307 312 313 316 323 330 334 339 341 338 332 329 329 331 331 332 332 331 329 327 325 324 322 319 318 318 318
190 182 151 150 171 169 163 157 151 146 144 150 132 130 145 136 148 145 118 81 59 324 315 342 358 5 357 351 352 1 7 5 3 4 7 7 3 2 8 13 14 15 13 10 9 9 10 11 11 4 347 327 301 268 252 238 227 228 229 242 246 264 286 289 293 296 297 298 294 293 298 304 310 319 329 334 338 342 342 338 332 330 329 328 327 331 333 332 330 328 328 325 322 321 321 321 322
200 194 170 160 180 182 172 172 172 162 156 163 148 147 164 143 163 167 139 99 86 296 299 316 328 348 348 349 349 357 6 7 8 11 14 10 5 5 12 16 16 17 15 14 13 12 13 12 12 10 356 331 302 275 262 248 250 260 257 259 275 290 289 285 288 296 299 296 291 289 293 301 310 322 330 335 340 342 341 336 331 330 327 323 323 328 333 332 330 329 328 325 323 323 323 324 327
211 204 188 171 183 190 184 187 182 170 166 169 154 160 186 169 190 203 185 102 79 274 278 290 311 330 335 343 344 351 2 7 15 20 20 14 7 8 14 17 16 15 14 14 13 14 15 15 14 13 8 350 314 285 275 259 257 273 269 276 295 293 281 273 276 296 303 292 286 288 293 300 312 324 328 335 341 341 341 339 336 333 329 321 319 326 332 331 329 328 326 324 323 323 326 332 340
219 213 205 183 181 193 195 194 185 176 171 172 169 169 191 182 201 205 205 243 91 261 270 281 300 312 319 331 337 344 357 9 20 25 23 17 10 11 16 16 16 15 13 12 12 13 13 14 14 14 14 6 340 306 280 268 277 269 254 268 277 266 265 261 269 296 295 285 284 287 292 300 315 322 326 337 341 341 341 342 341 339 333 322 318 324 329 329 327 326 324 323 323 327 335 347 2
225 218 214 197 182 189 197 198 190 185 176 175 181 174 187 208 222 227 228 229 213 251 267 283 295 300 310 323 333 340 351 9 22 26 24 19 12 12 17 16 15 15 14 14 13 12 10 10 12 12 13 12 2 330 284 252 275 272 243 253 248 240 254 262 272 284 280 280 288 288 291 307 317 317 325 339 340 338 340 340 340 339 335 325 318 323 327 327 326 324 323 323 326 338 354 7 27
226 221 219 211 195 192 198 199 196 194 181 177 182 176 190 237 247 246 244 239 244 257 264 277 286 291 304 316 326 336 342 359 18 20 21 19 13 11 13 14 14 13 14 15 14 13 11 10 9 10 10 10 11 352 305 254 251 256 244 237 236 239 253 266 272 274 275 279 288 291 296 311 314 314 324 336 336 334 337 337 335 334 333 328 321 321 325 326 324 323 322 325 339 1 14 31 57
227 224 221 220 216 207 202 200 202 199 184 181 182 175 187 256 259 251 251 250 254 259 265 272 277 282 293 307 320 331 334 344 8 11 13 17 13 11 11 10 11 11 12 13 13 13 13 12 9 7 7 6 7 4 334 274 247 243 244 240 238 244 253 263 270 273 271 271 285 293 298 306 305 313 323 330 331 332 336 334 331 330 332 331 324 322 325 325 323 322 323 337 9 27 44 71 82
230 228 225 224 225 218 209 204 205 196 188 192 189 183 198 248 263 256 252 256 257 260 266 271 271 276 285 298 311 317 323 336 359 360 4 13 13 11 12 9 8 7 8 8 9 10 12 12 9 6 4 2 1 2 357 305 257 240 241 248 250 250 255 263 271 268 262 264 282 288 290 292 295 311 319 323 329 334 336 331 327 328 333 333 328 326 326 324 323 323 337 21 45 63 81 91 93
232 231 229 226 226 223 213 207 204 197 199 205 201 197 201 237 267 263 254 259 263 262 264 268 270 273 280 289 297 304 311 326 349 357 357 7 9 9 11 9 5 5 5 4 5 6 8 9 7 5 2 359 357 356 355 337 275 250 245 254 264 262 257 257 263 261 259 266 277 279 283 282 288 307 313 319 329 336 335 329 326 328 335 335 331 329 326 325 326 338 36 65 78 88 93 97 98
232 230 230 228 227 225 216 210 205 201 206 213 213 206 198 226 253 258 261 264 262 264 264 267 270 271 279 283 288 296 299 312 335 353 355 360 4 4 7 6 2 2 2 1 2 2 4 6 5 3 360 357 353 351 349 340 303 267 253 253 264 263 252 245 254 261 264 267 268 273 276 276 287 300 309 319 331 337 332 326 325 331 338 336 333 330 329 329 339 46 78 91 98 99 100 101 100
234 231 231 229 227 224 219 216 213 206 206 212 219 216 213 232 236 245 260 263 259 262 266 267 269 271 277 278 279 287 293 303 320 343 355 360 2 358 356 360 359 360 360 359 359 360 1 3 4 1 358 357 352 348 343 337 322 281 258 258 263 263 257 252 256 260 262 261 261 268 271 279 291 301 310 320 334 335 326 322 325 335 340 338 335 332 333 343 55 88 98 105 104 104 104 101 100
236 232 231 230 227 224 221 221 219 213 208 209 218 219 218 230 237 244 253 257 258 262 263 262 264 269 273 273 275 284 294 301 312 328 346 359 0 345 344 353 356 357 358 358 358 358 359 1 2 0 357 355 352 349 341 333 326 295 263 262 269 274 270 264 258 252 253 256 260 266 272 284 294 304 310 321 336 328 319 320 329 339 341 339 336 336 345 62 99 102 105 106 107 108 104 102 101
239 234 231 231 230 227 226 226 223 219 216 212 216 218 219 227 237 245 249 252 258 261 259 260 265 268 270 271 275 287 296 299 307 317 323 342 349 332 338 350 351 354 356 356 357 357 358 358 359 359 356 353 351 352 347 334 323 308 277 252 253 274 270 260 252 247 252 260 266 272 277 283 290 301 307 323 332 318 314 324 332 340 341 339 337 342 39 111 105 103 103 103 111 113 109 108 105
241 237 233 233 234 232 230 228 225 223 222 217 214 216 220 229 235 238 243 249 255 257 258 262 266 266 268 271 277 285 292 294 302 310 311 323 331 330 341 350 348 351 352 353 355 356 357 357 357 357 354 352 350 352 351 341 323 307 292 256 233 247 256 252 251 258 265 265 266 270 278 284 290 299 306 323 325 310 315 326 332 338 338 339 339 356 116 123 110 107 103 102 107 110 114 112 104
241 240 237 235 235 234 233 229 226 226 227 223 218 217 221 229 234 234 239 248 252 253 257 261 261 266 271 273 278 282 287 292 298 304 307 315 324 332 342 349 349 349 349 350 353 355 356 355 355 354 353 352 350 352 352 344 329 307 293 272 237 230 240 253 261 268 269 266 265 270 280 287 293 298 306 319 315 307 317 326 330 333 334 338 340 85 134 131 120 115 106 103 102 104 109 109 100
239 240 239 237 236 235 234 231 228 229 230 228 221 218 223 229 234 236 239 244 248 253 258 258 257 268 273 272 279 283 283 288 294 299 303 311 322 332 339 344 346 346 347 348 350 353 354 354 353 352 353 352 350 351 351 344 335 320 297 280 252 231 235 248 255 259 263 263 265 273 279 285 291 293 304 314 303 304 317 325 326 326 331 338 346 139 140 137 128 118 106 102 100 100 102 105 100
238 239 238 239 238 236 235 233 231 230 230 230 223 220 226 233 237 241 241 241 246 253 257 253 255 267 268 265 279 283 280 285 291 294 299 309 321 329 335 338 341 344 345 347 349 351 353 353 353 351 351 353 351 349 349 344 336 328 309 285 263 240 235 239 234 227 242 262 269 276 280 285 290 290 304 307 295 305 320 320 319 319 330 343 149 148 147 144 133 119 106 99 97 101 106 110 105
237 237 237 238 239 237 236 234 233 231 231 231 229 226 229 235 240 243 244 242 244 250 253 249 254 265 260 257 273 276 274 286 289 290 296 307 318 326 332 333 338 341 343 346 348 350 352 353 353 351 351 353 353 349 347 344 337 333 319 295 270 249 238 234 223 213 221 254 268 276 284 287 286 291 303 300 296 313 316 313 312 315 334 25 157 154 153 149 136 121 109 101 99 103 111 112 103
236 237 236 237 237 238 237 236 235 233 232 232 232 232 232 235 240 244 244 242 244 247 249 248 253 259 251 249 261 260 267 286 285 284 292 302 313 321 327 330 336 340 343 346 347 349 352 353 354 352 351 352 354 351 347 345 341 338 328 307 278 256 241 231 218 210 218 243 261 272 280 280 284 292 297 295 304 314 309 307 307 315 342 145 160 158 157 150 139 127 116 113 110 110 115 111 91
235 235 236 236 236 237 238 237 236 235 234 233 233 235 236 237 239 244 244 241 242 243 245 249 250 249 245 246 253 251 260 278 277 279 288 298 308 315 323 328 334 339 342 345 347 350 353 355 355 353 353 354 356 355 351 347 344 342 336 319 291 264 245 229 213 210 220 237 253 265 271 274 282 286 287 295 310 311 305 304 304 317 16 153 162 162 159 150 143 133 127 126 117 114 119 109 84
236 235 235 235 235 236 237 237 237 237 235 234 234 235 236 237 237 241 242 240 239 241 244 248 248 248 246 246 252 251 253 267 273 277 285 295 303 310 319 325 332 338 341 344 347 350 355 357 356 357 0 359 357 357 354 350 349 347 345 335 311 284 258 235 213 207 213 224 235 252 263 268 271 275 286 306 313 308 302 300 304 323 119 156 163 164 159 150 144 138 135 129 114 112 116 101 77
236 236 235 235 235 235 236 236 237 237 237 236 235 235 235 236 237 238 241 239 238 241 245 245 247 251 246 243 249 252 251 259 268 275 283 294 300 306 316 322 329 335 337 341 347 352 357 360 1 4 4 1 357 358 358 354 353 353 353 356 351 337 296 227 199 197 207 223 234 246 255 258 265 279 300 312 312 304 297 299 304 339 139 157 165 165 158 150 144 141 137 125 113 110 108 93 79
236 236 236 235 234 234 235 235 236 237 237 237 236 236 235 236 237 238 240 240 239 240 242 243 247 251 246 241 246 252 253 257 263 274 283 291 296 302 314 320 325 331 333 339 348 355 1 5 8 6 0 359 356 357 2 359 358 359 1 16 30 46 81 131 158 181 205 237 257 261 259 263 279 295 307 314 311 300 295 299 294 142 143 157 164 164 160 151 146 143 135 125 119 112 105 94 84
236 236 236 236 234 234 234 234 235 236 236 237 237 237 237 236 236 238 239 239 239 239 239 241 244 248 246 241 243 250 255 258 262 273 280 285 289 298 312 317 321 326 330 338 349 358 6 10 6 0 357 359 357 358 5 5 2 4 7 29 55 76 90 98 106 107 86 29 354 316 287 283 293 303 313 318 312 301 297 287 204 145 146 157 163 164 161 152 147 142 131 129 123 113 108 100 90
236 236 236 235 234 234 234 234 234 234 235 236 237 237 237 236 235 236 238 238 239 239 239 240 241 243 241 237 242 251 259 260 262 271 277 279 281 293 310 315 317 323 328 337 350 2 11 7 357 356 359 1 359 1 8 9 7 8 9 19 42 61 58 56 60 45 30 14 355 329 309 307 311 314 319 322 313 308 302 222 164 145 148 158 162 165 162 155 151 140 132 134 125 117 118 112 95
237 236 236 235 234 234 234 234 233 233 234 235 236 236 237 236 236 236 238 238 238 238 239 239 239 239 235 233 241 254 263 263 263 271 276 275 274 288 309 310 312 322 327 335 348 7 15 1 351 355 0 3 3 5 9 11 11 12 11 6 2 12 14 16 11 359 349 344 347 343 336 328 319 317 321 327 327 337 29 162 153 146 150 158 163 166 163 159 155 142 139 142 129 121 118 102 79
236 235 236 236 234 234 234 234 234 233 233 234 235 236 236 236 236 236 237 238 237 238 239 238 237 237 234 233 241 254 263 262 262 270 273 270 270 287 304 305 312 321 323 334 350 15 14 357 352 357 0 6 7 7 9 10 12 13 13 8 1 1 360 359 348 337 334 334 342 340 335 328 316 312 319 6 6 18 85 143 150 149 152 159 163 166 165 165 162 149 146 147 130 114 97 84 76
236 235 235 235 234 234 233 234 234 233 233 233 234 235 235 235 235 236 236 236 237 239 240 239 238 237 235 233 238 251 260 258 259 268 269 266 269 285 297 301 312 318 319 335 356 23 12 353 358 357 354 4 8 8 8 8 10 13 12 6 0 358 349 341 334 329 332 332 334 333 332 329 315 304 328 43 12 18 94 138 150 153 155 161 164 166 169 171 168 155 149 145 124 102 86 83 94
237 235 234 234 234 233 233 233 233 233 233 233 233 233 234 234 234 234 235 235 236 238 240 240 240 238 234 232 237 250 257 254 256 262 260 262 272 282 290 296 306 311 322 340 2 27 7 345 0 355 350 1 6 8 8 5 8 11 10 2 354 353 343 338 335 331 324 315 322 330 342 352 6 42 13 19 18 48 110 139 153 157 158 163 166 168 172 175 171 157 151 144 123 105 96 100 105
237 235 234 233 232 232 232 232 232 232 232 232 233 232 233 233 233 233 233 234 235 235 237 239 240 238 235 233 241 251 251 250 254 253 252 262 273 277 280 287 294 300 316 338 1 22 350 330 353 353 352 360 2 6 7 4 6 9 10 4 355 352 345 339 334 325 312 309 319 335 29 52 52 67 66 62 69 84 116 143 156 161 162 166 169 169 174 174 166 155 151 144 130 121 118 112 103
238 236 234 232 231 231 231 231 232 232 231 231 232 232 232 232 232 232 233 233 234 233 234 237 238 238 236 235 243 248 245 247 248 244 250 260 267 270 276 279 277 280 296 320 335 338 322 325 342 349 354 358 358 5 6 3 6 9 10 6 1 356 350 345 337 329 319 318 337 30 70 78 79 79 81 86 91 100 121 145 158 164 166 170 173 172 170 163 153 149 149 143 132 129 123 106 95
239 238 236 232 231 230 231 231 231 232 231 230 232 232 231 232 232 232 232 232 232 231 231 234 235 235 235 237 242 243 240 242 237 237 249 257 260 271 277 272 260 258 274 298 309 307 310 322 334 341 352 357 356 3 7 5 6 9 11 11 11 9 5 3 359 357 356 10 46 66 80 87 87 89 96 101 109 119 133 147 157 165 169 173 175 170 157 146 142 144 147 141 125 117 106 92 96
241 239 238 234 231 230 231 231 231 232 231 230 231 232 232 231 231 231 232 231 231 230 229 231 231 232 235 235 236 236 236 237 232 235 245 249 255 268 274 267 253 247 254 272 304 307 304 315 326 334 348 355 355 2 9 7 6 10 14 22 30 30 29 28 28 35 42 57 68 70 71 69 75 88 103 116 124 132 138 144 151 159 165 169 168 155 143 137 138 144 146 137 114 95 90 95 104
242 240 239 236 232 230 230 230 231 232 232 230 230 231 232 232 231 231 231 230 230 230 229 231 231 232 235 234 233 234 234 233 231 235 238 242 249 259 267 261 248 245 240 233 296 309 300 307 315 329 348 352 354 3 10 10 9 11 17 32 48 48 49 49 47 52 56 62 65 62 59 59 68 80 99 116 126 130 133 136 141 149 156 159 154 144 137 137 141 145 145 140 126 115 114 113 114
242 240 239 236 232 229 228 228 230 231 231 230 228 229 231 232 232 230 229 229 230 230 230 231 232 233 234 232 232 233 233 232 232 234 235 239 242 247 260 255 244 249 246 236 260 294 297 298 306 329 348 348 354 5 11 14 13 13 20 36 56 59 59 58 56 57 59 60 61 63 64 67 74 85 99 111 118 122 123 126 131 138 145 147 144 141 139 140 142 144 144 141 129 120 119 120 122
242 241 241 237 231 228 227 227 228 229 231 231 228 227 229 232 233 231 229 227 228 230 231 231 232 232 231 232 233 233 233 236 238 237 237 239 237 240 254 248 240 251 255 254 260 275 295 297 307 333 347 345 355 5 12 18 18 16 21 34 54 62 63 59 57 59 63 67 69 72 74 78 83 91 99 105 111 115 116 121 126 133 139 141 141 141 140 140 140 138 132 122 116 112 110 113 119
242 240 240 239 234 228 227 227 227 228 230 231 230 228 228 231 234 233 230 228 227 229 231 232 232 231 231 232 234 233 235 241 243 240 238 238 234 237 249 241 234 245 251 257 263 267 303 307 310 330 343 343 354 7 12 20 22 18 19 28 44 58 63 59 57 59 68 75 78 82 85 88 92 95 100 103 107 113 118 122 126 130 134 137 138 138 138 137 132 126 119 116 116 112 106 105 107
244 238 238 239 236 231 228 228 228 228 230 231 232 231 230 230 233 234 232 229 228 229 231 233 232 232 232 232 234 235 237 241 243 240 237 236 233 238 246 236 229 237 240 249 256 251 282 306 306 325 341 340 353 9 11 18 24 18 13 20 31 47 58 60 59 60 71 81 86 90 92 93 96 98 102 104 108 114 121 124 126 128 130 132 134 136 135 130 124 119 115 118 121 117 110 105 101
246 240 237 238 238 234 231 230 229 228 229 231 232 232 232 231 231 232 232 230 229 230 232 233 232 231 231 231 233 234 235 237 237 235 234 232 232 238 241 231 227 234 238 246 252 243 243 274 285 316 340 340 348 7 11 15 22 16 8 14 23 35 50 59 61 61 73 87 92 95 96 95 97 100 103 108 113 118 123 126 127 128 131 134 136 135 129 123 120 117 115 115 118 118 117 113 105
245 236 233 236 239 237 234 232 231 231 230 231 232 233 233 232 232 232 232 232 231 230 231 232 231 229 229 230 230 229 229 230 231 230 230 230 232 237 236 227 224 231 238 247 253 244 234 244 262 292 328 337 338 2 15 13 14 14 7 8 17 30 45 59 65 65 72 90 98 99 99 99 99 102 106 112 118 123 126 129 131 134 136 136 134 129 124 122 120 118 115 112 109 109 114 117 114
238 230 228 231 236 239 238 233 230 230 232 232 232 233 234 234 233 232 232 232 232 231 231 232 232 229 229 230 230 228 226 226 227 229 230 232 234 235 233 226 223 228 238 248 257 251 240 237 248 270 300 322 319 346 20 13 5 11 7 0 8 28 43 54 68 71 74 91 104 107 107 107 108 110 113 118 124 128 132 135 137 139 137 133 129 126 124 124 122 120 118 113 107 106 109 112 113
235 224 222 224 227 233 239 239 233 229 230 232 233 233 234 234 234 232 230 231 232 232 232 232 232 231 229 229 229 228 227 227 229 231 233 236 235 233 232 228 224 229 240 250 260 259 247 240 245 260 275 294 307 325 18 16 2 7 3 355 357 28 43 48 61 76 82 91 109 118 118 118 119 121 125 129 134 137 140 141 140 137 134 131 127 125 123 123 121 119 118 114 110 109 110 109 108
243 226 220 221 220 222 230 238 240 235 231 231 233 233 234 234 233 232 230 229 230 231 232 232 232 231 230 229 228 229 229 231 233 234 235 236 235 233 233 231 228 231 241 252 259 256 247 241 245 251 255 265 297 313 0 20 8 6 359 353 347 12 44 45 48 77 92 97 107 123 129 129 127 129 134 138 142 145 144 141 138 135 132 130 128 125 124 123 121 119 118 117 115 114 112 110 109
267 245 234 228 222 218 221 229 236 239 236 233 233 233 234 234 233 232 230 229 228 229 230 231 231 231 231 229 228 228 230 231 233 234 234 234 235 235 234 232 230 232 241 251 255 250 241 237 239 242 244 245 274 297 313 28 13 3 358 359 349 314 3 37 37 73 107 109 110 120 134 137 135 134 137 141 143 144 143 140 137 135 132 131 132 133 133 130 126 124 123 122 121 120 115 112 112
309 299 277 251 236 224 221 225 230 234 235 234 233 233 233 234 234 232 231 230 229 228 228 228 230 231 231 229 228 228 230 231 233 234 234 234 234 234 232 231 230 232 239 248 250 245 236 231 232 240 246 243 254 276 263 222 17 8 6 8 4 331 289 320 2 65 131 131 122 122 131 140 145 141 138 141 144 144 142 140 138 136 134 135 139 140 138 134 132 131 130 127 126 123 116 113 115
332 323 316 293 264 243 230 227 229 233 234 233 233 233 233 233 233 232 231 230 230 228 227 226 226 227 229 229 228 228 230 232 233 234 234 234 234 233 232 231 229 231 239 247 248 243 234 231 232 239 247 244 243 259 262 238 237 6 11 7 5 354 295 291 294 284 175 161 144 131 130 138 151 148 142 143 146 146 145 142 141 139 137 141 145 142 138 136 136 135 133 131 128 124 119 116 118
330 322 317 311 292 263 246 235 230 230 233 235 234 233 234 233 232 230 230 230 230 229 228 227 227 226 227 228 228 229 229 231 231 230 231 233 234 235 235 235 233 233 240 247 247 241 233 230 233 239 246 243 240 252 261 247 238 257 334 354 325 281 267 276 276 270 228 193 171 152 143 140 154 155 148 147 150 151 150 148 147 145 141 144 148 146 141 139 139 138 136 134 131 127 123 120 120
313 316 313 308 305 287 258 243 234 227 229 234 237 236 235 234 233 231 229 229 230 230 231 230 230 230 229 229 229 230 231 230 228 226 226 229 232 234 235 238 237 237 242 244 240 235 231 230 233 239 244 242 238 246 256 252 244 246 251 301 301 292 275 265 259 260 241 206 192 178 167 155 158 162 156 152 154 157 157 156 156 155 151 149 153 153 149 145 143 143 140 138 136 136 133 125 122
288 296 296 294 297 299 286 252 235 226 227 229 234 239 238 236 234 232 231 230 230 231 232 232 232 232 232 232 231 231 232 232 230 228 227 229 232 233 235 238 238 238 238 235 231 228 228 229 232 238 244 241 236 243 253 254 248 244 228 209 249 293 307 275 248 244 235 210 200 194 188 177 167 168 167 163 162 163 165 166 166 166 164 159 159 161 160 155 152 149 144 138 135 142 146 139 131
274 279 286 293 297 298 305 293 246 231 230 227 226 233 239 240 237 234 233 231 230 230 232 234 235 234 234 233 232 231 232 233 233 231 230 231 232 232 233 236 236 235 234 230 226 225 226 228 231 237 243 239 236 243 251 252 246 238 226 214 228 255 276 288 256 232 220 208 205 200 197 194 185 178 177 176 174 173 173 174 174 174 174 171 168 168 170 168 164 162 156 146 138 142 157 160 152
274 275 282 290 297 298 296 303 302 248 236 231 226 226 233 239 239 236 235 233 230 229 230 232 235 235 234 233 231 231 232 233 234 233 232 232 233 232 231 233 233 232 232 230 228 227 227 227 229 236 241 238 238 244 248 249 242 235 233 226 229 252 257 267 260 230 214 207 208 205 201 202 200 195 189 186 185 184 183 184 184 183 183 183 181 180 181 182 182 183 183 179 171 167 188 205 189
274 275 277 278 282 291 296 305 311 276 243 230 228 226 228 234 237 237 236 234 230 228 227 228 231 234 234 232 231 229 229 231 232 233 234 232 233 233 232 232 233 231 230 230 228 228 227 226 228 234 237 235 238 243 244 244 240 236 240 237 235 259 259 229 222 225 215 207 208 211 210 209 209 208 204 200 196 195 195 196 196 196 194 193 193 193 194 196 199 203 207 212 216 215 223 238 233
271 270 271 272 274 278 284 293 298 285 263 233 226 230 232 233 234 235 235 234 232 229 228 227 228 231 231 230 229 227 227 229 228 229 235 235 231 231 232 232 232 230 227 226 225 225 226 227 228 232 234 235 238 241 241 240 239 240 243 241 240 254 255 224 213 219 216 214 217 219 220 220 217 216 214 212 208 205 205 205 205 205 206 205 204 205 206 208 212 217 220 222 226 229 233 240 244
266 266 266 268 270 272 276 283 285 284 283 264 241 238 240 238 235 233 233 234 233 231 231 231 230 230 230 228 226 225 225 226 223 220 230 237 233 230 230 230 230 227 224 223 224 225 228 230 231 232 235 241 243 244 243 241 244 245 242 241 244 250 246 230 222 220 218 224 229 226 226 227 223 220 219 218 217 215 213 213 212 212 212 213 213 214 215 218 222 227 229 227 225 228 234 241 245
257 260 261 263 266 270 274 278 276 273 283 283 267 251 248 248 243 237 234 233 233 232 232 233 235 234 232 229 227 225 224 223 219 216 222 233 235 229 227 227 228 226 224 224 226 228 230 232 234 234 237 244 246 246 247 247 249 248 244 243 245 245 239 228 220 217 215 226 235 231 228 230 226 222 222 223 222 220 220 220 219 218 218 218 219 221 223 226 230 234 235 231 228 228 235 242 246